Terug naar catalogus

STARLINK-5813

ActiefCommunicatieVLEO
NORAD 55790·PAYLOAD·🇺🇸 United States

Gelanceerd Mar 3, 2023 vanaf Vandenberg Space Force Base

Loading…

Volgende Passages (komende 24 uur)

TLE

VersSource: CelesTrak SupGP

Epoch: Sep 14, 2026, 21:59 UTC

1 55790C 23028BB  26257.91645833  .00033255  00000+0  27875-2 0  2577
2 55790  70.0003  87.3280 0002349 277.5839 348.9886 14.98307441    13

Volg STARLINK-5813 in realtime met AllMySat

Download on the App Store